Weather in Barmashur

Russia / Udmurt Republic     58°15′11″N   52°05′32″E
temp.,
°C
wind,
m/s
gust,
m/s
humid.,
%
clouds,
%
prec.,
mm/h
press.,
hPa
HPBL,
m
13 may, thu
thu1301:00+15ene11598 0.0 102711
04:00+14ene22615 0.0 102711
07:00+18e12563 0.0 102798
10:00+23se33483 0.0 1026546
13:00+26s34370 0.0 10252247
16:00+26s46315 0.0 10242436
19:00+22ssw36480 0.0 1023122
22:00+17s34545 0.0 102451
14 may, fri
fri1401:00+16sse346284 0.0 102352
04:00+15sse366592 0.0 1023106
07:00+18sse4117015 0.4 1022322
10:00+23s684841 0.5 1021804
13:00+25sw6945100 0.0 10201496
16:00+24wsw6851100 0.0 10201566
19:00+22wsw366581 0.0 1020217
22:00+18ssw22785 0.0 102018
15 may, sat
sat1501:00+16ssw2286100 0.0 102020
04:00+15ssw2290100 0.1 102017
07:00+18ssw237794 0.0 1020180
10:00+22ssw455694 0.0 1019602
13:00+26sw584894 0.0 10191347
16:00+27sw5941100 0.0 10181221
19:00+23ssw41054100 0.0 1017310
22:00+18ssw41363100 0.0 1017283
16 may, sun
sun1601:00+16ssw41166100 0.0 1017209
04:00+14ssw366984 0.0 1017100
07:00+18ssw410635 0.0 1017259
10:00+23ssw711455 0.0 1016605
13:00+27sw81336100 0.0 10152336
16:00+27wsw61242100 0.0 10152529
19:00+23sw49563 0.0 1013269
22:00+18w488034 1.1 1015180
17 may, mon
mon1701:00+15wsw228694 0.3 101531
04:00+15w2486100 0.4 101672
07:00+18wsw47801 0.2 1016343
10:00+22wsw57570 0.2 10161113
13:00+24w794413 0.0 10162287
16:00+24w684444 0.0 10161941
19:00+21wnw3660100 0.0 1017196
22:00+17nnw116983 0.0 101811